Simultaneous Nadir Overpasses (SNOs) Predictions

Prediction of SNOs between FY3D and NOAA-19 Satellite Orbit:

Table of predicted SNOs for the next 14.0 days since TLE Epoch: 1/14/2023
Index Date (FY3D) Time (FY3D) Lat,Lon (FY3D) SZA (FY3D ) Date (NOAA-19) Time (NOAA-19) Lat,Lon (NOAA-19) SZA (NOAA-19 ) Distance(km) Time Diff (sec)
1 01/16/2023 21:15:00 -76.92, 29.09 81.90 01/16/2023 21:13:46 -76.89, 29.07 81.91 3.54 74
2 01/16/2023 22:05:46 76.92,-163.60 98.10 01/16/2023 22:04:42 76.91,-163.60 98.10 1.69 64
3 01/16/2023 22:56:32 -76.94, 3.65 81.90 01/16/2023 22:55:45 -76.91, 3.66 81.91 2.69 47
4 01/16/2023 23:47:18 76.94, 170.96 98.10 01/16/2023 23:46:41 76.93, 171.00 98.10 1.27 37
5 01/17/2023 00:38:04 -76.95, -21.78 81.89 01/17/2023 00:37:44 -76.93, -21.74 81.91 2.13 20
6 01/17/2023 01:28:50 76.95, 145.53 98.10 01/17/2023 01:28:40 76.95, 145.60 98.10 1.86 10
7 01/17/2023 02:19:36 -76.96, -47.22 81.89 01/17/2023 02:19:43 -76.95, -47.15 81.91 2.11 7
8 01/17/2023 03:10:22 76.96, 120.09 98.11 01/17/2023 03:10:39 76.97, 120.20 98.11 2.90 17
9 01/17/2023 04:01:08 -76.98, -72.66 81.89 01/17/2023 04:01:42 -76.98, -72.55 81.90 2.66 34
10 01/17/2023 04:51:54 76.98, 94.65 98.11 01/17/2023 04:52:39 76.95, 94.61 98.08 3.05 45
11 01/17/2023 05:42:40 -76.99, -98.09 81.89 01/17/2023 05:43:41 -77.00, -97.96 81.90 3.51 61
12 01/17/2023 06:33:26 76.99, 69.21 98.11 01/17/2023 06:34:38 76.97, 69.21 98.08 2.03 72



Historial Predications of SNOs between FY3D and NOAA-19
